Regional Weather Roundup
Issued by NWS Newport/Morehead, NC

Current Version | Previous Version | Text Only | Print | Product List | Glossary On
Versions: 1 2 3 4 5 6 7 8 9 10 11 12 13 14 15 16 17 18 19 20 21 22 23 24 25 26 27 28 29 30 31 32 33 34 35 36 37 38 39 40 41 42 43 44 45 46 47 48 49 50
000
ASUS42 KMHX 190022
RWRMHX
WEATHER ROUNDUP FOR EASTERN NORTH CAROLINA
NATIONAL WEATHER SERVICE NEWPORT/MOREHEAD CITY NC
800 PM EDT FRI APR 18 2014

NOTE: "FAIR" INDICATES FEW OR NO CLOUDS BELOW 12,000 FEET
WITH NO SIGNIFICANT WEATHER AND/OR OBSTRUCTIONS TO VISIBILITY

NCZ015>017-031-032-045>047-102-103-190100-
NORTH COAST

CITY           SKY/WX    TMP DP  RH WIND       PRES   REMARKS
EDENTON        CLOUDY    49  42  78 NE7       30.29F
ELIZABETH CITY CLOUDY    48  41  76 N9        30.31S
KITTY HAWK     CLOUDY    46  44  91 NE7       30.28R
MANTEO         CLOUDY    46  44  90 NE14G20   30.30R

$$

NCZ045>047-081-094-103-104-190100-
CENTRAL COAST

CITY           SKY/WX    TMP DP  RH WIND       PRES   REMARKS
FRISCO         CLOUDY    51  49  92 NE10G23   30.25S
SWANQUARTER      N/A     52 N/A N/A NE10      30.24R

$$

NCZ095-097-098-100-101-190100-
SOUTHERN COAST

CITY           SKY/WX    TMP DP  RH WIND       PRES   REMARKS
BEAUFORT       CLOUDY    56  46  69 NE14G22   30.23R
CEDAR ISLAND     N/A     54 N/A N/A NE18G24   30.27S
JACKSONVILLE   LGT RAIN  58  49  72 NE12      30.21F
NEWPORT          N/A     55  48  76 N8G14       N/A
PINEY ISLAND   CLOUDY    57  47  69 NE17G24   30.24S
WILMINGTON     RAIN      58  54  86 NE9       30.19F FOG


$$

NCZ011>013-027>030-043-044-078>080-089-090>093-098-190100-
COASTAL PLAIN

CITY           SKY/WX    TMP DP  RH WIND       PRES   REMARKS
AHOSKIE        CLOUDY    52  41  66 NE5       30.29F
CLINTON        CLOUDY    61  49  64 NE6       30.22S
ELIZABETHTOWN  LGT RAIN  59  49  70 CALM      30.22R
GOLDSBORO      CLOUDY    60  48  64 N3        30.22S
GREENVILLE     CLOUDY    59  45  58 E8        30.26F
HAVELOCK       CLOUDY    58  45  62 NE15      30.24S
KENANSVILLE    CLOUDY    60  47  61 N5        30.23S
KINSTON        CLOUDY    61  46  59 NE9       30.24F
NEW BERN       CLOUDY    59  47  64 NE10      30.26R
RICHLANDS      CLOUDY    57  50  77 NE8       30.23R
ROANOKE RAPIDS NOT AVBL
ROCKY MOUNT    CLOUDY    56  44  64 NE6       30.26F
WASHINGTON     CLOUDY    53  46  77 NE10      30.27F
WHITEVILLE     HVY RAIN  56  54  92 CALM      30.22R

$$

AMZ130-135-150-152-154-156-158-170-250-252-270-ANZ085-086-088-633-658-670-190100-
MARINE OBSERVATIONS

STATION/POSITION TIME  TEMP    WIND        PRES    WAVE   SWELL
                       AIR SEA DIR/SP/G            HT/PER HT/PER
                 (UTC) (F)     (DEG/KT/KT) (MB)    (FT/S) (FT/S)
CHESAPEAKE LIGHT 0000   45      30/ 14/ 15 1026.9
BUOY 44014       0000   47 49   10/ 16/ 17 1025.1    7/10   5/10
DUCK             0000   46 52   20/ 16/ 18 1025.3
2E DUCK          0000      49                N/A     6/ 9   2/12
OREGON INLET     0000   47 52  350/ 13/ 17 1025.7
BUOY 44095       0000      48                N/A     8/10   3/11
HATTERAS CG      0000   51 56   20/ 11/ 20 1024.4
DIAMOND BUOY     NOT AVBL
CAPE LOOKOUT     0000   55      20/ 15/ 21 1023.3
BEAUFORT LAB     0000   56 59   30/ 11/ 17 1022.9
30 SE NEW RIVER  0000   58 65   40/ 23/ 29 1021.9    7/ 7   3/ 9
5 SE WRIGHTSVILL 0000   57 59   60/ 21/ 23 1021.5
FRYING PAN BUOY  0000   60 64   60/ 23/ 29 1020.0    9/ 7   3/10
BUOY 41001       NOT AVBL
BUOY 41002       NOT AVBL
BUOY 41004       NOT AVBL

$$



USA.gov is the U.S. government's official web portal to all federal, state and local government web resources and services.